Location: ???? ????
(41.4149°N, 22.8816°E)
Time: 11:33:41
(UTC+00:00)

SL-16 R/B - Pass Details

Date: 14 July 2020
Orbit: 985 x 1007 km, 99.5° (Epoch: 09 August)

Event Time Altitude Azimuth Distance (km) Brightness Sun altitude
Exits shadow 00:11:55 37° 165° (SSE) 1,498 3.1 -23.0°
Maximum altitude 00:14:35 89° 254° (WSW) 1,009 2.5 -22.8°
Drops below altitude 10° 00:20:54 10° 345° (NNW) 2,789 5.5 -22.3°
Sets 00:23:23 0° 346° (NNW) 3,744 6.3 -22.1°
